TimeEDT,TemperatureF,Dew PointF,Humidity,Sea Level PressureIn,VisibilityMPH,Wind Direction,Wind SpeedMPH,Gust SpeedMPH,PrecipitationIn,Events,Conditions,WindDirDegrees,DateUTC
12:53 AM,81.0,73.9,79,29.98,10.0,SE,8.1,-,0.00,,Clear,130,2013-09-11 04:53:00
1:53 AM,81.0,73.9,79,29.98,10.0,East,10.4,-,N/A,,Scattered Clouds,100,2013-09-11 05:53:00
2:53 AM,81.0,73.0,77,29.96,10.0,ESE,9.2,-,N/A,,Partly Cloudy,120,2013-09-11 06:53:00
3:53 AM,81.0,73.0,77,29.95,10.0,ESE,10.4,-,N/A,,Clear,120,2013-09-11 07:53:00
4:53 AM,81.0,73.9,79,29.95,10.0,ESE,10.4,-,N/A,,Scattered Clouds,120,2013-09-11 08:53:00
5:53 AM,81.0,73.9,79,29.96,10.0,ESE,9.2,-,N/A,,Scattered Clouds,120,2013-09-11 09:53:00
6:53 AM,81.0,73.9,79,29.97,10.0,ESE,8.1,-,N/A,,Scattered Clouds,110,2013-09-11 10:53:00
7:53 AM,82.0,73.9,76,29.98,10.0,ESE,9.2,-,N/A,,Scattered Clouds,110,2013-09-11 11:53:00
8:53 AM,82.0,73.9,76,30.00,10.0,ESE,10.4,-,N/A,,Scattered Clouds,110,2013-09-11 12:53:00
9:06 AM,82.4,75.2,79,30.00,10.0,SSE,17.3,23.0,N/A,,Mostly Cloudy,150,2013-09-11 13:06:00
9:18 AM,80.6,73.4,79,30.01,10.0,SE,15.0,-,N/A,,Mostly Cloudy,130,2013-09-11 13:18:00
9:53 AM,82.9,75.0,77,30.01,10.0,ESE,11.5,-,N/A,,Scattered Clouds,110,2013-09-11 13:53:00
10:53 AM,84.9,75.9,74,30.00,10.0,ESE,13.8,-,N/A,,Clear,110,2013-09-11 14:53:00
11:53 AM,84.9,75.9,74,30.01,10.0,SE,8.1,-,N/A,,Scattered Clouds,130,2013-09-11 15:53:00
12:50 PM,82.4,75.2,79,30.01,6.0,East,6.9,20.7,0.00,Rain,Rain,80,2013-09-11 16:50:00
12:53 PM,82.0,75.0,79,30.01,6.0,ESE,10.4,20.7,0.00,Rain,Light Rain,120,2013-09-11 16:53:00
1:13 PM,82.4,75.2,79,30.00,10.0,SE,10.4,-,0.00,,Mostly Cloudy,140,2013-09-11 17:13:00
1:53 PM,86.0,75.9,72,29.99,10.0,SE,11.5,-,0.00,,Clear,130,2013-09-11 17:53:00
2:53 PM,86.0,75.9,72,29.97,10.0,SE,12.7,-,N/A,,Partly Cloudy,140,2013-09-11 18:53:00
3:53 PM,86.0,73.9,67,29.95,10.0,SSE,15.0,-,N/A,,Clear,150,2013-09-11 19:53:00
4:53 PM,86.0,75.0,70,29.97,10.0,SSE,17.3,-,N/A,,Partly Cloudy,150,2013-09-11 20:53:00
5:53 PM,84.9,73.9,69,29.98,10.0,SE,16.1,25.3,N/A,,Mostly Cloudy,140,2013-09-11 21:53:00
6:53 PM,82.0,72.0,71,29.98,10.0,SE,24.2,32.2,N/A,,Mostly Cloudy,130,2013-09-11 22:53:00
7:53 PM,82.9,75.0,77,29.99,10.0,ESE,11.5,-,N/A,,Scattered Clouds,110,2013-09-11 23:53:00
8:37 PM,78.8,73.4,83,30.00,10.0,South,20.7,31.1,N/A,,Mostly Cloudy,190,2013-09-12 00:37:00
8:53 PM,79.0,73.0,82,30.00,10.0,SSW,15.0,-,N/A,,Mostly Cloudy,200,2013-09-12 00:53:00
9:53 PM,80.1,75.0,85,30.01,10.0,SW,11.5,-,N/A,,Clear,220,2013-09-12 01:53:00
10:53 PM,80.1,75.9,87,30.00,10.0,SW,10.4,-,N/A,,Partly Cloudy,230,2013-09-12 02:53:00
11:53 PM,81.0,73.0,77,29.99,10.0,SSW,6.9,-,N/A,,Clear,200,2013-09-12 03:53:00